Location: Newark
(30.1000°N, 109.4667°E)
Time: 02:14:04
(UTC+00:00)

A-11 Canister half - Pass Details

Date: 21 February 2020
Orbit: 1516 x 1683 km, 47.2° (Epoch: 08 April)

Event Time Altitude Azimuth Distance (km) Brightness Sun altitude
Rises 12:23:29 0° 299° (WNW) 4,848 12.6 -24.2°
Reaches altitude 10° 12:27:19 10° 311° (NW) 3,835 11.7 -25.0°
Maximum altitude 12:35:25 29° 8° (N) 2,598 10.1 -26.8°
Enters shadow 12:38:34 24° 37° (NE) 2,798 10.0 -27.5°
